GFSSW_700_rhum_270.txt.gz
RH
36 35 31 13 18 22 20 20 21 20 19 18 16 9 7 7 5 5 4 3 4 4 4 3 3 5 12 24 32 44 62 51 66 75 76 84 92 66 78 80 79 81 72 70 56
40 38 34 20 16 21 20 21 21 19 18 17 14 7 8 6 5 4 4 4 4 4 4 4 4 8 18 31 44 49 62 58 54 71 87 93 95 92 99 71 71 78 75 79 74
43 42 38 29 14 19 20 22 23 21 17 16 10 7 7 5 5 4 4 4 4 4 4 4 5 13 20 42 52 56 55 59 47 70 93 96 95 100 99 68 50 65 69 74 68
45 45 42 36 20 16 22 24 24 23 18 14 8 8 7 5 5 4 4 4 4 4 4 5 11 21 33 48 48 54 62 62 56 74 93 96 99 98 93 68 50 56 70 76 60
47 48 45 40 24 15 21 25 25 24 18 11 8 8 6 5 4 4 4 4 4 4 4 6 17 31 40 47 48 57 67 63 67 94 96 93 98 92 98 99 51 44 57 62 68
48 51 48 43 28 16 20 26 25 24 18 9 8 8 6 5 4 5 5 5 4 4 5 12 28 45 36 39 53 68 59 66 81 89 94 89 100 100 93 94 69 47 53 55 62
51 52 53 52 33 18 21 26 26 24 18 10 8 8 6 5 5 5 5 5 5 5 6 16 33 45 38 37 49 54 59 62 63 62 94 89 85 100 97 82 82 70 68 52 77
54 57 56 50 34 19 23 25 27 23 16 9 8 7 6 6 5 5 5 5 5 5 9 27 35 39 36 47 54 63 55 50 57 67 90 82 100 96 100 89 79 87 89 88 90
58 58 59 55 38 22 24 27 28 22 16 9 8 7 6 6 6 5 5 5 5 6 12 23 32 34 45 53 64 66 73 69 59 91 93 91 94 100 96 99 99 80 65 65 100
62 61 58 55 44 26 26 28 26 22 17 9 8 7 6 6 6 6 5 5 6 7 11 21 31 30 46 78 99 88 81 75 76 85 100 97 97 98 99 97 98 99 88 94 100
66 63 61 57 48 30 28 32 27 19 18 10 9 7 6 6 6 6 5 5 6 8 12 27 36 49 50 65 75 73 74 79 70 81 93 98 95 94 96 98 98 98 98 98 93
71 66 63 57 52 33 28 32 29 20 16 11 10 7 7 7 6 6 5 5 6 7 22 28 42 59 47 43 60 65 73 75 62 69 89 96 96 95 96 96 96 98 99 100 94
76 70 66 58 54 34 28 34 27 18 15 10 11 8 7 7 6 6 6 5 7 8 20 37 43 44 41 44 42 58 75 80 83 66 96 97 92 92 95 100 97 98 98 98 89
78 76 69 60 53 37 32 32 23 16 16 12 10 8 7 7 7 7 6 6 7 8 18 29 43 39 39 42 56 61 72 74 65 82 97 94 96 89 93 94 96 97 97 98 100
83 80 71 63 55 37 35 33 20 17 41 12 10 9 7 8 7 7 6 6 6 8 16 40 42 39 39 53 58 66 58 66 86 87 80 77 87 95 83 70 84 86 96 99 92
88 90 85 67 57 39 38 33 18 19 18 11 10 8 8 8 7 7 6 6 7 9 14 35 44 52 56 46 56 61 61 56 75 85 89 95 84 91 92 98 90 86 94 100 100
95 98 92 68 61 41 41 29 19 11 14 10 9 8 8 8 7 6 7 7 8 10 14 23 38 57 55 32 48 61 54 72 72 84 98 89 72 91 98 94 98 98 88 95 98
100 100 91 70 63 41 44 24 15 15 11 11 9 8 8 8 7 7 7 8 11 14 33 24 28 53 61 63 61 74 88 98 95 100 95 79 86 94 96 96 95 98 96 98 100
100 100 98 75 66 44 44 24 16 13 11 11 9 8 8 8 7 7 8 15 17 18 28 30 26 38 68 65 55 70 86 97 100 95 98 89 84 80 90 86 97 87 96 98 99
100 100 100 92 64 48 42 23 19 13 11 10 8 9 8 8 7 7 8 19 17 20 24 28 33 33 54 58 62 66 76 92 92 96 98 82 95 97 86 84 96 84 90 95 100
100 100 99 98 60 50 38 25 18 13 10 11 8 8 8 8 7 8 9 17 14 18 20 30 35 33 54 74 74 69 65 82 93 99 98 99 92 100 100 94 96 96 92 89 96
99 100 99 98 68 47 37 23 17 14 10 9 8 9 8 8 7 8 9 11 13 17 23 31 37 42 64 77 74 79 72 79 91 88 97 98 85 97 96 100 96 96 98 92 93
99 100 100 99 89 47 41 27 16 13 10 9 8 8 8 8 7 8 9 12 15 18 19 36 41 38 38 60 69 83 75 71 87 96 99 98 90 94 95 96 97 98 97 94 95
100 99 99 100 94 50 42 31 18 14 10 9 9 8 8 8 7 9 10 11 15 19 19 30 36 45 57 78 93 93 88 72 70 87 88 94 89 73 72 82 92 95 95 91 91
99 98 99 98 97 95 46 35 16 12 10 9 9 8 9 8 7 9 10 11 17 18 18 24 29 32 50 87 92 93 98 83 68 77 93 87 82 77 75 79 90 97 97 92 95
100 99 99 99 99 78 56 45 19 11 9 8 9 8 9 9 8 9 10 14 17 18 14 16 17 20 48 91 89 84 100 84 69 75 92 78 72 75 75 74 95 97 94 98 96
98 99 100 99 99 91 80 59 21 9 9 8 8 9 10 10 9 9 10 13 19 20 14 12 10 18 61 84 82 92 86 73 65 80 84 78 73 65 62 66 80 94 95 94 96

GFSSW_700_rhum_273.txt.gz
RH
40 38 34 27 14 16 18 21 21 21 17 16 13 7 7 5 5 4 4 4 4 4 4 4 4 6 9 16 26 35 46 47 53 59 73 69 92 86 97 95 95 59 74 82 54
43 42 40 34 21 13 16 22 22 22 19 15 10 8 6 5 5 4 4 4 4 4 4 4 5 8 13 26 40 42 50 61 62 72 78 78 96 96 98 86 85 74 71 87 80
45 45 44 40 29 14 17 23 23 23 19 14 8 8 6 5 4 4 4 4 4 4 4 4 5 8 20 32 41 47 50 68 54 70 75 93 88 88 100 95 96 82 62 81 79
47 47 47 44 34 17 16 22 24 24 19 12 8 8 6 5 4 5 5 4 4 4 4 4 7 11 24 27 35 54 62 71 69 88 90 95 96 98 97 99 98 52 60 73 75
50 48 50 48 42 27 18 22 25 24 20 11 8 7 6 5 5 5 5 5 4 4 4 5 8 16 20 28 40 48 64 55 80 73 95 98 97 89 85 88 91 68 48 66 67
53 51 52 52 47 29 20 22 25 24 19 13 8 7 6 5 5 5 5 5 4 4 4 8 15 19 24 34 51 49 47 53 65 67 93 97 99 90 80 99 82 77 49 58 63
56 54 55 54 49 32 20 22 25 24 18 11 8 7 6 6 5 5 5 5 4 4 7 15 21 24 31 38 50 39 52 58 69 73 85 90 91 99 100 98 98 94 55 80 100
59 58 56 57 51 39 22 22 25 25 18 10 9 6 6 6 6 6 5 4 4 5 8 20 25 24 23 41 40 46 53 61 78 78 80 87 99 99 98 91 94 90 88 68 76
62 61 60 57 53 45 27 23 26 25 19 11 9 6 7 6 6 6 5 4 4 5 11 26 27 26 22 25 40 50 66 72 72 88 98 90 88 97 100 100 95 97 89 74 97
66 65 62 59 54 48 33 24 27 26 19 15 9 7 7 7 6 6 5 4 5 5 13 21 24 21 26 37 82 66 76 78 82 94 95 90 95 96 99 100 100 99 100 95 98
70 70 65 62 56 52 37 25 29 22 20 18 11 9 7 7 6 6 5 4 5 7 12 24 28 42 49 52 62 62 70 82 71 85 93 91 95 95 91 91 99 100 100 97 98
75 74 70 66 59 54 40 25 32 24 18 16 11 10 8 7 7 6 5 5 5 6 18 18 36 45 39 36 48 57 70 68 59 89 96 96 94 96 91 94 94 96 94 97 98
81 79 73 72 66 56 43 29 31 23 16 14 11 10 8 7 7 6 5 5 6 6 14 23 32 35 34 38 40 58 71 70 80 90 93 88 98 90 95 98 97 97 96 98 98
80 84 79 78 76 61 44 32 32 21 17 14 11 9 8 8 7 6 5 5 6 6 11 19 26 31 35 43 50 56 64 71 83 82 80 79 93 81 83 92 95 96 97 97 100
77 84 90 92 88 66 47 35 32 19 43 13 11 10 8 8 7 7 6 5 5 6 10 24 18 28 36 50 56 61 52 72 93 82 72 77 79 84 79 62 74 90 96 100 94
83 84 91 97 96 69 50 41 29 22 22 13 11 9 8 8 7 6 6 5 6 7 9 21 22 38 44 43 52 55 59 61 70 84 86 90 77 90 93 98 86 92 97 100 100
89 91 99 100 98 72 50 44 21 16 16 12 11 10 8 9 7 6 6 6 6 8 9 13 23 43 54 31 40 48 52 68 68 82 92 88 75 94 97 98 95 95 96 95 99
100 99 100 100 100 77 50 39 22 19 14 12 11 10 8 9 8 6 6 6 8 9 19 16 18 37 56 56 51 63 82 94 96 100 90 79 82 95 97 96 97 98 100 97 100
100 100 100 98 100 90 49 40 24 16 13 12 12 9 9 9 8 6 7 9 10 9 13 13 20 37 62 58 49 59 78 96 100 97 97 88 84 92 81 80 87 84 96 96 100
100 100 100 99 100 97 50 40 29 20 13 12 10 9 9 9 7 6 7 13 10 11 12 16 18 24 53 48 53 59 68 88 91 96 95 76 97 100 86 83 87 82 86 95 98
100 100 99 100 100 99 81 43 31 21 14 12 10 9 9 9 7 7 8 12 11 12 11 12 17 23 49 60 73 64 61 81 93 99 96 92 92 96 89 96 91 95 93 94 95
100 100 99 100 100 99 93 53 31 19 13 10 10 9 9 9 7 7 8 8 10 13 12 12 14 26 43 60 68 79 70 68 92 90 96 96 80 89 80 96 94 98 93 94 95
99 99 99 100 99 100 97 60 33 18 13 11 9 9 9 9 7 7 8 9 11 15 12 14 19 18 30 45 60 84 85 71 80 99 98 97 79 81 70 83 96 94 98 92 90
99 99 98 99 99 99 97 80 63 18 12 10 9 9 9 9 7 7 8 9 12 16 12 12 15 17 37 48 79 91 83 82 66 88 88 96 80 66 60 60 81 89 99 100 95
99 98 98 98 99 99 98 97 52 17 14 10 9 9 9 9 8 8 8 9 12 15 12 11 14 12 21 54 88 88 80 82 66 73 92 82 79 70 70 64 75 92 94 92 98
99 99 98 99 99 100 99 97 82 36 12 10 10 8 9 10 9 9 8 10 12 17 12 11 11 10 23 60 79 76 86 80 66 67 91 75 67 70 75 72 73 91 92 90 96
99 99 99 99 99 99 97 97 86 34 12 8 8 8 10 11 10 10 10 9 11 17 13 11 10 11 32 44 56 74 78 78 67 70 78 67 68 64 61 66 68 80 94 93 97

GFSSW_700_rhum_276.txt.gz
RH
43 42 41 36 28 14 15 20 20 21 19 15 10 8 6 5 4 4 4 4 4 4 3 3 3 4 7 10 17 25 71 62 58 67 64 80 89 77 100 100 97 100 100 97 91
45 45 44 41 35 19 15 21 22 21 19 14 8 8 6 4 4 4 4 4 4 4 3 3 4 5 8 14 21 28 72 66 71 82 89 99 95 95 99 91 87 82 91 85 96
48 47 46 45 40 29 16 18 22 22 20 13 8 7 6 4 4 5 5 5 4 3 3 3 4 6 10 17 30 42 68 73 74 93 87 88 92 97 95 85 93 85 62 60 69
50 49 48 47 45 39 22 16 22 23 22 14 8 7 6 5 5 5 5 5 4 3 3 4 5 8 14 26 36 39 37 55 74 77 78 82 95 98 92 92 97 90 72 54 72
52 52 51 50 50 41 25 15 22 23 21 16 8 7 6 5 5 5 5 5 4 3 3 5 6 10 20 30 35 42 44 59 72 84 71 91 88 90 81 75 84 93 79 50 64
55 55 53 53 52 46 31 17 22 23 21 16 9 7 6 6 6 6 6 4 3 3 3 6 9 12 19 30 36 45 50 60 64 76 79 94 99 81 69 79 92 98 80 53 71
58 58 57 54 53 49 40 22 20 23 22 16 9 8 6 6 6 6 6 4 3 3 5 6 10 13 17 28 38 35 41 60 64 59 77 84 96 86 83 83 99 97 90 64 65
62 61 60 57 54 51 46 29 21 24 22 17 10 8 6 6 6 6 6 4 3 3 6 8 11 14 12 23 32 38 55 75 87 67 81 96 98 94 96 92 95 100 100 100 98
66 64 64 60 58 53 49 37 23 25 22 20 12 8 7 7 6 6 6 4 3 3 6 10 14 12 15 25 57 61 66 74 84 80 82 89 95 97 97 97 97 98 98 94 97
72 69 68 64 62 58 53 42 24 24 22 20 12 9 8 7 7 6 5 4 3 4 8 13 13 21 29 46 64 70 73 83 82 86 100 100 97 96 96 96 96 97 97 98 97
77 74 72 70 65 60 56 46 28 25 24 21 16 11 9 8 7 7 5 4 4 4 8 13 23 31 36 46 54 51 75 80 79 76 100 99 98 95 94 95 91 96 96 97 98
75 78 76 75 70 66 60 53 32 28 23 18 15 11 9 8 7 7 5 4 4 4 10 19 32 31 34 40 50 59 83 76 71 88 99 100 96 93 91 97 97 99 98 98 98
73 77 81 78 76 75 71 58 38 32 21 17 13 11 9 8 7 7 5 4 4 4 9 14 25 31 28 38 38 59 78 62 82 73 91 97 99 64 90 96 96 100 99 98 98
78 79 78 80 80 81 79 65 41 34 20 15 12 10 9 8 8 7 5 4 4 4 8 11 16 23 23 41 46 80 69 65 86 98 81 80 83 75 73 77 84 95 97 100 98
89 81 82 83 92 95 94 73 41 31 65 16 12 11 9 8 8 7 5 5 4 5 7 13 9 17 28 39 47 56 52 68 91 99 78 81 90 92 81 61 75 90 95 98 98
100 94 92 93 98 99 98 70 39 24 41 14 11 10 9 8 8 6 6 5 5 6 7 10 12 21 31 27 45 51 61 60 67 70 76 98 93 85 90 100 82 86 97 100 100
98 96 99 100 100 100 99 80 34 22 21 15 11 11 9 9 8 6 6 5 5 6 6 10 16 24 28 18 37 37 51 72 70 76 75 76 74 92 98 97 96 91 88 92 98
100 100 100 100 100 99 98 83 35 27 14 15 12 11 9 9 8 6 6 6 6 7 12 10 23 21 39 47 54 58 81 86 81 75 61 73 87 100 96 96 97 97 100 99 100
100 100 100 98 100 100 99 96 41 17 17 12 12 10 9 9 8 6 7 7 8 7 9 10 20 21 36 43 44 58 88 84 100 88 75 66 88 83 79 80 89 90 94 98 100
99 100 100 100 99 100 100 99 64 36 23 14 12 12 9 9 8 7 7 9 8 7 8 10 19 13 32 34 52 55 65 97 96 84 74 56 84 91 68 70 88 85 84 94 100
99 99 99 100 100 100 100 99 96 68 23 14 11 10 9 9 8 7 8 9 9 8 8 9 10 14 26 40 61 64 64 78 91 100 80 69 75 89 70 75 90 90 91 84 95
99 99 99 99 100 99 99 99 99 84 33 12 12 10 9 10 8 7 7 8 9 9 9 9 9 14 21 35 56 73 81 65 93 87 96 91 72 83 67 67 86 92 92 86 89
99 99 99 100 99 99 99 99 98 70 65 13 11 10 10 9 8 7 8 8 9 11 9 9 12 29 28 37 47 81 76 77 71 86 100 82 72 72 68 61 75 89 90 90 82
99 99 99 99 97 99 99 99 98 97 62 12 10 9 9 10 8 8 8 8 10 12 10 9 10 10 28 23 36 74 85 81 69 88 82 91 70 63 58 55 62 83 86 93 85
99 99 98 98 99 99 99 98 98 98 80 16 10 9 9 10 9 8 8 9 10 12 10 9 10 10 11 18 41 60 72 79 68 66 82 80 65 63 67 57 59 75 91 88 86
99 99 98 99 98 99 99 98 98 97 34 21 11 10 9 10 10 10 9 9 11 13 10 10 10 9 12 21 38 41 69 75 67 64 72 65 60 60 70 64 62 68 90 88 88
99 99 99 98 99 99 97 99 99 98 96 47 9 11 9 10 11 11 11 10 11 12 10 10 11 10 30 22 34 49 40 51 65 65 71 64 57 56 60 66 62 64 87 89 94

GFSSW_700_rhum_279.txt.gz
RH
44 45 45 44 38 29 16 14 19 20 21 17 9 8 6 4 4 4 5 5 4 4 3 2 2 2 2 6 6 19 56 46 50 56 61 75 86 93 73 91 100 100 83 73 68
45 47 46 46 44 38 27 14 18 20 22 18 9 8 6 4 4 5 5 5 4 4 2 3 3 3 6 10 18 27 55 52 57 70 83 90 80 70 73 82 87 67 69 75 86
47 49 49 48 47 46 34 16 19 20 22 19 9 8 7 5 5 5 5 5 4 3 2 2 3 3 10 26 16 38 62 58 67 76 66 77 76 93 94 82 77 69 66 59 57
50 51 51 49 49 48 38 19 19 20 22 19 12 8 7 5 5 6 6 6 5 3 2 3 3 4 18 25 19 49 62 56 56 57 87 78 83 100 100 94 86 84 96 99 77
53 54 54 53 52 51 45 28 20 20 22 20 14 8 7 6 6 6 6 6 5 3 3 3 3 4 8 17 43 63 51 45 57 85 87 78 100 94 85 88 89 95 98 99 62
56 57 57 56 55 54 50 39 22 20 23 20 13 9 7 6 6 6 6 6 4 3 3 4 3 5 9 16 29 35 38 72 63 80 89 86 100 83 78 81 91 98 98 91 59
59 61 60 60 59 56 53 47 30 22 25 20 13 9 7 6 7 6 6 5 4 3 3 4 4 6 9 18 26 32 47 68 70 66 95 77 97 88 94 92 97 97 98 96 81
61 65 64 63 62 60 55 51 40 24 23 20 17 10 7 7 7 7 6 5 4 3 3 4 5 7 11 40 56 60 61 56 65 83 92 90 97 96 98 94 97 96 95 98 97
60 68 68 66 66 63 58 54 45 27 24 21 20 12 8 8 7 7 6 5 4 3 3 4 5 15 29 42 43 53 49 53 61 74 98 99 98 97 98 93 96 96 98 93 87
60 70 73 70 69 66 61 58 51 35 25 23 19 14 10 8 8 7 6 4 3 3 4 6 22 34 32 48 58 65 63 66 58 71 88 100 100 90 95 94 95 96 96 97 98
62 72 78 74 73 70 67 64 54 41 32 26 21 17 12 9 8 7 6 4 4 4 7 13 24 22 28 36 47 69 66 61 59 74 77 94 100 93 95 95 90 97 96 97 98
72 71 78 79 79 78 74 73 67 50 35 27 20 16 12 9 8 8 6 5 4 4 16 24 21 13 25 52 60 70 65 58 67 78 98 95 94 98 89 91 96 96 96 97 99
96 83 78 78 81 82 84 84 80 69 38 25 20 14 11 9 8 8 6 5 4 4 6 9 9 12 30 50 34 73 79 74 78 82 93 88 98 96 71 72 90 97 98 97 98
99 98 92 90 86 89 93 98 98 92 32 23 16 12 10 8 8 8 6 5 4 4 6 7 6 10 10 22 30 73 67 67 83 90 80 82 79 90 61 66 77 95 96 96 99
100 99 97 99 100 97 100 100 99 70 71 24 14 11 10 9 9 8 6 5 4 4 7 9 5 8 10 24 34 50 55 61 91 99 90 73 91 93 62 74 81 89 96 96 98
100 100 100 100 100 100 100 100 98 85 57 21 13 11 10 9 8 7 6 5 6 5 5 6 8 12 15 13 33 38 66 68 87 82 93 76 79 76 89 92 88 94 96 96 97
99 100 100 100 100 100 100 100 99 89 35 19 14 11 10 9 9 7 6 5 5 10 8 35 16 9 9 6 28 28 47 75 82 72 70 69 64 81 96 79 96 96 93 96 97
99 100 100 100 100 100 99 99 100 88 35 17 15 12 10 9 9 7 7 6 6 6 9 21 28 9 19 22 35 73 94 90 79 65 52 60 77 97 91 62 86 95 96 97 97
100 100 100 100 100 100 100 99 99 90 77 21 12 12 10 9 10 8 7 7 7 6 7 11 31 8 16 21 25 42 86 84 100 89 69 52 75 80 63 54 73 82 84 94 99
99 99 99 99 100 100 100 99 99 99 87 79 14 13 10 9 10 8 7 8 7 7 7 9 47 10 14 28 44 45 58 94 94 83 67 45 64 78 56 52 58 79 77 80 96
100 99 98 99 100 99 99 99 99 99 98 96 33 11 10 9 10 7 7 8 8 8 7 8 10 22 35 20 28 43 75 91 94 93 80 63 82 71 60 56 56 79 82 80 83
99 99 98 100 99 99 99 99 99 99 99 84 46 11 10 9 10 7 7 7 8 8 8 8 10 58 18 16 21 33 56 74 87 78 80 78 65 77 54 55 56 70 85 84 81
99 99 100 99 98 99 99 99 99 99 98 94 61 18 10 9 10 8 8 8 8 9 8 9 15 60 64 52 39 40 60 65 81 89 90 71 73 74 56 50 50 61 84 84 85
99 99 99 99 98 99 99 99 99 99 98 97 51 10 10 9 10 8 8 8 9 10 8 8 9 9 33 33 12 26 42 59 74 84 81 71 73 51 49 48 45 50 75 85 82
99 98 98 98 99 99 99 99 99 99 98 98 68 25 10 9 10 9 9 9 9 10 9 8 8 10 9 10 13 23 30 52 67 80 75 74 61 53 51 50 49 49 62 82 77
99 99 99 98 99 99 99 98 99 99 98 97 79 27 10 17 12 9 10 10 9 10 10 9 12 9 10 10 15 20 23 34 44 56 62 75 71 54 52 54 51 52 55 78 81
99 99 99 99 99 99 99 99 99 99 99 96 66 49 16 50 14 11 11 12 10 10 10 10 10 11 60 14 18 39 12 16 21 44 52 54 66 54 47 50 49 51 54 71 79